This is the latest recevied weather packets stored in our database for station/object WO5CID. If no packets are shown the sender has not sent any weather packets the latest 10 day(s).
| Time | Temp. | Humidity | Pressure | Rain* | Wind** | Luminosity | Snow |
|---|---|---|---|---|---|---|---|
| 1777642699 | 22.78° C | 79% | 1012.2 hPa | 0 mm | - | 190 W/m² | - |
| 1777642397 | 22.78° C | 79% | 1012.4 hPa | 0 mm | - | 134 W/m² | - |
| 1777642093 | 22.78° C | 80% | 1012.3 hPa | 0 mm | - | 153 W/m² | - |
| 1777641789 | 22.78° C | 78% | 1011.8 hPa | 0 mm | - | 120 W/m² | - |
| 1777641483 | 22.78° C | 79% | 1012.1 hPa | 0 mm | - | 109 W/m² | - |
| 1777641179 | 22.78° C | 79% | 1011.9 hPa | 0 mm | - | 136 W/m² | - |
| 1777640875 | 22.78° C | 79% | 1012.1 hPa | 0 mm | - | 135 W/m² | - |
| 1777640573 | 22.78° C | 79% | 1011.9 hPa | 0 mm | - | 130 W/m² | - |
| 1777640269 | 22.22° C | 81% | 1012.1 hPa | 0 mm | - | 144 W/m² | - |
| 1777639965 | 22.22° C | 80% | 1012.4 hPa | 0 mm | - | 127 W/m² | - |
| 1777639662 | 22.22° C | 81% | 1012.2 hPa | 0 mm | - | 137 W/m² | - |
| 1777639361 | 22.22° C | 84% | 1012 hPa | 0 mm | - | 119 W/m² | - |
| 1777639055 | 21.67° C | 87% | 1011.8 hPa | 0 mm | - | 171 W/m² | - |
| 1777638752 | 21.67° C | 88% | 1011.8 hPa | 0 mm | - | 134 W/m² | - |
| 1777638448 | 21.11° C | 89% | 1012.1 hPa | 0 mm | - | 107 W/m² | - |
| 1777638146 | 20.56° C | 95% | 1012 hPa | 0 mm | - | 87 W/m² | - |
| 1777637841 | 20.56° C | 97% | 1012 hPa | 0 mm | - | 86 W/m² | - |
| 1777637537 | 20.56° C | 98% | 1011.7 hPa | 0 mm | - | 84 W/m² | - |
| 1777637235 | 20.56° C | 98% | 1011.9 hPa | 0 mm | - | 68 W/m² | - |
| 1777636932 | 20.56° C | 98% | 1011.7 hPa | 0 mm | - | 59 W/m² | - |
| 1777636628 | 20.56° C | 98% | 1011.5 hPa | 0 mm | - | 58 W/m² | - |
| 1777636324 | 20° C | 98% | 1011.7 hPa | 0 mm | - | 63 W/m² | - |
| 1777636019 | 20° C | 98% | 1011.8 hPa | 0 mm | - | 50 W/m² | - |
| 1777635715 | 20° C | 98% | 1011.5 hPa | 0 mm | - | 50 W/m² | - |
| 1777635412 | 20° C | 98% | 1011.7 hPa | 0 mm | - | 35 W/m² | - |
* Rain latest hour (hover to see other rain measurements)
** Current wind speed in m/s (hover to see current wind gust speed)